Yankton, SD

2:28 PM CST on November 22, 2019 (GMT -0600)
Gurney Municipal

Weather History for KYKN - September, 2019

Change the Weather History Date:

Tuesday, September 24, 2019

  Actual Average Record
Temperature  
Mean Temperature 73 °F -  
Max Temperature 86 °F 70 °F 86 °F (1958)
Min Temperature 60 °F 42 °F 30 °F (1965)
Cooling Degree Days 8    
Growing Degree Days 23 (Base 50)    
Moisture  
Dew Point 59 °F    
Average Humidity 64    
Maximum Humidity 81    
Minimum Humidity 45    
Precipitation  
Precipitation 0.00 in - - ()
Sea Level Pressure  
Sea Level Pressure 29.76 in    
Wind  
Wind Speed 12 mph (WSW)    
Max Wind Speed 21 mph    
Max Gust Speed 25 mph    
Visibility 10 miles    
Events      
Averages and records for this station are not official NWS values.
T = Trace of Precipitation, MM = Missing Value Source: NWS Daily Summary

Daily Weather History Graph

Daily Weather History Graph

Search for Another Location

Airport or City:

Astronomy

Sep. 24, 2019 Rise Set
Actual Time 7:18 AM CDT 7:23 PM CDT
Civil Twilight 6:50 AM CDT 7:51 PM CDT
Nautical Twilight 6:17 AM CDT 8:24 PM CDT
Astronomical Twilight 5:43 AM CDT 8:58 PM CDT
Moon 1:56 AM CDT (9/24) 5:18 PM CDT (9/24)
Length of Visible Light 13h 01m
Length of Day
12h 04m
Waning Crescent, 23% of the Moon is Illuminated
Sep 24
Waning Crescent
Sep 28
New
Oct 5
First Quarter
Oct 13
Full
Oct 21
Last Quarter

Hourly Weather History & Observations

Time (CDT) Temp. Heat Index Dew Point Humidity Pressure Visibility Wind Dir Wind Speed Gust Speed Precip Events Conditions
12:56 AM 71.1 °F - 55.0 °F 57% 29.88 in 10.0 mi SSW 15.0 mph - N/A   Clear
1:56 AM 70.0 °F - 55.0 °F 59% 29.87 in 10.0 mi SSW 13.8 mph - N/A   Clear
2:56 AM 69.1 °F - 55.0 °F 61% 29.85 in 10.0 mi SSW 15.0 mph - N/A   Clear
3:56 AM 69.1 °F - 55.9 °F 63% 29.83 in 10.0 mi SW 11.5 mph - N/A   Clear
4:56 AM 68.0 °F - 57.0 °F 68% 29.82 in 10.0 mi SSW 12.7 mph - N/A   Clear
5:56 AM 66.0 °F - 57.0 °F 73% 29.81 in 10.0 mi SSW 11.5 mph - N/A   Clear
6:56 AM 64.0 °F - 57.9 °F 80% 29.81 in 10.0 mi South 6.9 mph - N/A   Clear
7:56 AM 64.9 °F - 59.0 °F 81% 29.81 in 10.0 mi South 8.1 mph - N/A   Clear
8:56 AM 68.0 °F - 60.1 °F 76% 29.79 in 10.0 mi South 9.2 mph - N/A   Clear
9:56 AM 72.0 °F - 63.0 °F 73% 29.78 in 10.0 mi SSW 6.9 mph - N/A   Clear
10:56 AM 77.0 °F - 64.9 °F 66% 29.76 in 10.0 mi SW 9.2 mph - N/A   Clear
11:56 AM 80.1 °F 82.1 °F 66.0 °F 62% 29.73 in 10.0 mi SW 8.1 mph - N/A   Clear
12:56 PM 82.9 °F 85.0 °F 66.0 °F 56% 29.70 in 10.0 mi SW 5.8 mph - N/A   Clear
1:56 PM 84.0 °F 86.5 °F 66.9 °F 56% 29.68 in 10.0 mi SW 9.2 mph - N/A   Clear
2:56 PM 86.0 °F 88.2 °F 66.0 °F 51% 29.66 in 10.0 mi West 9.2 mph - N/A   Clear
3:26 PM 84.2 °F 85.6 °F 64.4 °F 51% 29.66 in 10.0 mi West 18.4 mph 23.0 mph N/A   Scattered Clouds
3:56 PM 82.9 °F 83.2 °F 60.1 °F 46% 29.66 in 10.0 mi WNW 16.1 mph - N/A   Clear
4:56 PM 81.0 °F 81.1 °F 57.9 °F 45% 29.65 in 10.0 mi WNW 18.4 mph - N/A   Clear
5:56 PM 77.0 °F - 57.9 °F 52% 29.69 in 10.0 mi WNW 20.7 mph 25.3 mph N/A   Clear
6:56 PM 73.0 °F - 57.0 °F 57% 29.71 in 10.0 mi WNW 10.4 mph - N/A   Clear
7:56 PM 68.0 °F - 55.9 °F 65% 29.74 in 10.0 mi WNW 9.2 mph - N/A   Clear
8:56 PM 66.0 °F - 55.9 °F 70% 29.75 in 10.0 mi WNW 9.2 mph - N/A   Clear
9:56 PM 61.0 °F - 54.0 °F 78% 29.76 in 10.0 mi WNW 8.1 mph - N/A   Clear
10:56 PM 60.1 °F - 52.0 °F 75% 29.75 in 10.0 mi West 3.5 mph - N/A   Clear
11:56 PM 60.1 °F - 51.1 °F 72% 29.75 in 10.0 mi West 6.9 mph - N/A   Clear